User: anonymous   Login
Location: Unspecified
(0.0000°N, 0.0000°E)
Time: 00:05:27
(UTC+02:00)
Language:

NATO 3D Rocket - Orbit

View from above orbital plane
View from above orbital plane
View from above satellite
View from above satellite

Ground track
Ground track

The orbit data is extracted from the following two-line orbital elements,

1 15392U 84115B   14294.49248890  .00000144  00000-0 -24197-5 0  2084
2 15392 021.4914 061.9394 1035163 019.5483 046.0648 12.45435276363025
Epoch (UTC): 21 October 2014 11:49:11
Eccentricity: 0.1035163
inclination: 21.4914°
perigee height: 670 km
apogee height: 2297 km
right ascension of ascending node: 61.9394°
argument of perigee: 19.5483°
revolutions per day: 12.45435276
mean anomaly at epoch: 46.0648°
orbit number at epoch: 36302

The dashed part of the orbit path shows where the satellite is in the earth's shadow,  

DLR